Location: Stoke Bliss
(52.2667°N, 2.5167°W)
Time: 20:10:47
(UTC+00:00)

FALCON 9 DEB - Pass Details

Date: 03 March 2021
Orbit: 367 x 384 km, 53.0° (Epoch: 15 April)

Event Time Altitude Azimuth Distance (km) Brightness Sun altitude
Rises 19:54:44 0° 282° (WNW) 2,289 8.5 -19.2°
Reaches altitude 10° 19:56:48 10° 282° (WNW) 1,430 7.0 -19.5°
Enters shadow 19:59:50 79° 269° (W) 403 2.9 -20.0°
